"startDT [UTC]","vpos","CH4 [ppm]","stdev(CH4) [ppm]","CO2 [ppm]","stdev(CO2) [ppm]","H2O_reported [%]","stdev(H2O_reported)","CavityPressure [torr]","CavityTemp [C]","OutletValve","CH4_dry [ppm]","CO2_dry [ppm]","DasTemp [C]","EtalonTemp [C]","WarmBoxTemp [C]","MPVPosition","T_ECpre [C]","T_EC1 [C]","T_EC2 [C]","p_inlet [hPa]","p_in [hPa]","p_out [hPa]","T_inlet [C]","RH_inlet [%]","dwpt_inlet [C]","T_vent [C]","RH_vent [%]","dwpt_vent [C]","flow_vent [l min-1]","flow_inlet [l min-1]","dwpt_sample [C]","T_room [C]"
2013-08-24 00:00:00,3.0,1.87232,0.00519,393.750,6.900,0.2505,0.3459,139.897,45.000,30793.07282,1.87957,394.454,31.097,45.055,45.000,0.00,0.12,-272.58,-272.63,-18,478,-0,19.9,31.0,2.2,19.5,32.7,2.7,5.73,2.61,1.8,25.0
2013-08-24 00:01:00,3.0,1.87435,0.00046,396.923,0.076,0.0365,0.0021,139.998,45.000,30710.57355,1.87488,397.111,31.108,45.055,45.000,0.00,0.12,-272.56,-272.63,-18,478,-0,19.8,31.3,2.3,19.5,32.9,2.8,5.73,2.60,1.8,25.0
2013-08-24 00:02:00,3.0,1.87505,0.00027,396.914,0.039,0.0334,0.0007,140.004,45.000,30701.01081,1.87563,397.070,31.103,45.055,45.000,0.00,0.12,-272.57,-272.64,-18,478,-0,19.9,31.3,2.3,19.5,32.9,2.8,5.73,2.59,1.8,25.0
2013-08-24 00:03:00,3.0,1.87518,0.00038,397.129,0.079,0.0279,0.0025,140.000,45.000,30694.15044,1.87566,397.250,31.119,45.054,45.000,0.00,0.12,-272.57,-272.65,-18,478,-0,19.9,31.1,2.3,19.5,32.7,2.7,5.73,2.59,1.8,25.0
2013-08-24 00:04:00,3.0,1.87534,0.00019,397.371,0.047,0.0219,0.0024,140.003,45.000,30688.71599,1.87578,397.466,31.118,45.054,45.000,0.00,0.12,-272.57,-272.64,-18,479,-0,19.9,31.2,2.3,19.5,32.9,2.8,5.73,2.59,1.8,25.0
2013-08-24 00:05:00,3.0,1.87554,0.00041,397.499,0.048,0.0177,0.0012,140.001,45.000,30683.44307,1.87582,397.578,31.117,45.055,45.000,0.00,0.12,-272.57,-272.64,-18,479,-1,19.9,31.3,2.4,19.5,32.9,2.8,5.73,2.59,1.8,25.1
2013-08-24 00:06:00,3.0,1.87551,0.00028,397.561,0.017,0.0135,0.0023,139.999,45.000,30678.82244,1.87581,397.629,31.118,45.055,45.000,0.00,0.12,-272.58,-272.64,-18,479,-0,19.9,31.4,2.4,19.6,33.0,2.8,5.73,2.59,1.8,25.1
2013-08-24 00:07:00,3.0,1.87566,0.00017,397.577,0.025,0.0108,0.0011,140.000,45.000,30679.27086,1.87582,397.627,31.122,45.055,45.000,0.00,0.12,-272.57,-272.63,-18,480,-0,19.9,31.3,2.4,19.6,32.9,2.8,5.73,2.59,1.8,25.1
2013-08-24 00:08:00,3.0,1.87552,0.00035,397.617,0.013,0.0099,0.0017,140.005,45.000,30679.91407,1.87572,397.665,31.081,45.055,45.000,0.00,0.12,-272.57,-272.63,-18,480,-1,19.9,31.3,2.4,19.6,32.9,2.8,5.73,2.58,1.8,25.1
2013-08-24 00:09:00,3.0,1.87550,0.00044,397.615,0.029,0.0074,0.0008,140.001,45.000,30676.67566,1.87566,397.651,31.068,45.055,45.000,0.00,0.12,-272.57,-272.64,-18,480,-1,19.9,31.5,2.5,19.6,33.2,2.9,5.73,2.59,1.8,25.1
2013-08-24 00:10:00,3.0,1.87565,0.00033,397.638,0.024,0.0075,0.0018,139.998,45.000,30675.08356,1.87579,397.673,31.064,45.055,45.000,0.00,0.12,-272.57,-272.64,-18,481,-1,19.9,31.6,2.5,19.6,33.3,3.0,5.73,2.59,1.8,25.1
2013-08-24 00:11:00,3.0,1.87579,0.00028,397.614,0.015,0.0082,0.0018,139.997,45.000,30677.06260,1.87586,397.654,31.063,45.055,45.001,0.00,0.12,-272.57,-272.63,-18,481,-1,19.8,31.8,2.6,19.6,33.4,3.0,5.73,2.59,1.8,25.1
2013-08-24 00:12:00,3.0,1.87601,0.00034,397.661,0.023,0.0062,0.0011,139.998,45.000,30673.83921,1.87610,397.689,31.063,45.056,45.001,0.00,0.12,-272.57,-272.63,-18,481,-1,19.8,31.7,2.5,19.6,33.3,3.0,5.73,2.59,1.8,25.1
2013-08-24 00:13:00,3.0,1.87609,0.00032,397.683,0.036,0.0038,0.0013,140.002,45.000,30675.98381,1.87618,397.702,31.063,45.055,45.000,0.00,0.12,-272.56,-272.64,-18,481,-1,19.9,31.2,2.3,19.6,32.9,2.8,5.73,2.58,1.8,25.1
2013-08-24 00:14:00,3.0,1.87603,0.00021,397.656,0.025,0.0038,0.0010,140.001,45.000,30676.17748,1.87613,397.677,31.064,45.055,45.000,0.00,0.12,-272.57,-272.63,-18,482,-1,19.9,30.9,2.2,19.6,32.5,2.7,5.73,2.59,1.8,25.1
2013-08-24 00:15:00,3.0,1.87607,0.00023,397.666,0.039,0.0044,0.0017,140.002,45.000,30676.87833,1.87612,397.684,31.065,45.055,45.000,0.00,0.12,-272.57,-272.63,-18,482,-1,19.9,30.8,2.2,19.6,32.4,2.6,5.73,2.59,1.8,25.1
2013-08-24 00:16:00,3.0,1.87600,0.00029,397.646,0.035,0.0040,0.0011,140.002,45.000,30679.71353,1.87610,397.662,31.067,45.055,45.000,0.00,0.12,-272.57,-272.63,-18,482,-1,19.9,31.1,2.3,19.6,32.7,2.8,5.73,2.59,1.8,25.1
2013-08-24 00:17:00,3.0,1.87619,0.00012,397.707,0.011,0.0043,0.0016,140.004,45.000,30682.17280,1.87621,397.728,31.063,45.055,45.000,0.00,0.12,-272.57,-272.63,-18,483,-1,19.9,31.2,2.4,19.6,32.8,2.8,5.73,2.59,1.8,25.1
2013-08-24 00:18:00,3.0,1.87599,0.00045,397.669,0.027,0.0042,0.0007,140.000,45.000,30682.41848,1.87615,397.691,31.063,45.055,45.000,0.00,0.12,-272.57,-272.64,-18,483,-1,20.0,31.2,2.4,19.6,32.7,2.8,5.73,2.59,1.8,25.1
2013-08-24 00:19:00,3.0,1.87593,0.00030,397.662,0.044,0.0028,0.0009,139.996,45.000,30681.83471,1.87596,397.676,31.068,45.055,45.000,0.00,0.12,-272.57,-272.64,-18,483,-1,20.0,31.1,2.3,19.7,32.6,2.8,5.73,2.59,1.8,25.1
2013-08-24 00:20:00,0.0,1.88701,0.00367,385.891,6.101,0.7110,0.3192,140.088,45.000,31230.67699,1.89784,389.784,31.076,45.055,45.000,0.00,0.12,-272.57,-272.64,-18,570,-1,20.0,30.9,2.3,19.7,32.4,2.7,5.73,2.59,1.8,25.1
2013-08-24 00:21:00,0.0,1.88858,0.00050,381.927,0.040,0.8906,0.0012,140.005,45.000,31297.75379,1.90558,386.135,31.085,45.055,45.000,0.00,0.12,-272.57,-272.63,-18,570,-1,20.0,30.6,2.1,19.7,32.1,2.5,5.73,2.60,1.8,25.1
2013-08-24 00:22:00,0.0,1.88768,0.00027,381.766,0.038,0.8963,0.0030,140.007,45.000,31312.88701,1.90485,386.002,31.118,45.055,45.000,0.00,0.12,-272.57,-272.64,-18,571,-1,20.0,30.6,2.1,19.7,32.0,2.5,5.73,2.60,1.8,25.1
2013-08-24 00:23:00,0.0,1.88749,0.00040,381.685,0.080,0.9084,0.0042,139.997,45.000,31319.81142,1.90483,385.981,31.125,45.055,45.000,0.00,0.12,-272.57,-272.64,-18,571,-1,20.0,30.9,2.3,19.7,32.4,2.7,5.73,2.61,1.8,25.1
2013-08-24 00:24:00,0.0,1.88772,0.00078,381.592,0.046,0.9140,0.0027,140.002,45.000,31327.45643,1.90506,385.914,31.125,45.055,45.000,0.00,0.12,-272.57,-272.64,-18,571,-1,20.0,31.1,2.4,19.7,32.5,2.8,5.73,2.60,1.8,25.1
2013-08-24 00:25:00,0.0,1.88875,0.00033,381.497,0.065,0.9217,0.0019,140.000,45.000,31333.49284,1.90633,385.855,31.125,45.055,45.000,0.00,0.12,-272.57,-272.64,-18,571,-1,20.0,31.3,2.5,19.7,32.8,2.9,5.73,2.61,1.8,25.1
2013-08-24 00:26:00,0.0,1.88894,0.00046,381.473,0.040,0.9245,0.0018,139.998,45.000,31334.64973,1.90663,385.838,31.125,45.055,45.000,0.00,0.12,-272.56,-272.63,-18,571,-1,20.0,31.4,2.5,19.7,32.9,2.9,5.73,2.60,1.8,25.1
2013-08-24 00:27:00,0.0,1.88946,0.00042,381.488,0.057,0.9273,0.0022,139.997,45.000,31339.80009,1.90719,385.869,31.126,45.055,45.000,0.00,0.12,-272.57,-272.64,-18,571,-1,20.0,31.5,2.5,19.7,32.9,2.9,5.73,2.61,1.8,25.1
2013-08-24 00:28:00,0.0,1.88929,0.00038,381.505,0.050,0.9214,0.0018,139.999,45.000,31344.18669,1.90703,385.858,31.117,45.055,45.000,0.00,0.12,-272.57,-272.63,-18,571,-1,20.0,31.3,2.4,19.7,32.7,2.8,5.73,2.61,1.8,25.1
2013-08-24 00:29:00,0.0,1.88865,0.00028,381.530,0.058,0.9201,0.0023,140.002,45.000,31348.07438,1.90628,385.884,31.099,45.055,45.000,0.00,0.12,-272.57,-272.63,-18,571,-1,20.0,31.2,2.4,19.7,32.7,2.8,5.73,2.61,1.8,25.1
2013-08-24 00:30:00,0.0,1.88788,0.00044,381.381,0.075,0.9307,0.0037,139.996,45.000,31349.72731,1.90575,385.770,31.085,45.055,45.000,0.00,0.12,-272.57,-272.63,-18,571,-1,20.0,31.6,2.6,19.7,33.0,3.0,5.73,2.61,1.8,25.1
2013-08-24 00:31:00,0.0,1.88888,0.00034,381.458,0.027,0.9372,0.0016,140.002,45.000,31353.89554,1.90666,385.890,31.076,45.055,45.000,0.00,0.12,-272.57,-272.63,-18,571,-1,20.0,31.7,2.7,19.7,33.2,3.1,5.73,2.61,1.8,25.1
2013-08-24 00:32:00,0.0,1.88917,0.00044,381.439,0.013,0.9289,0.0033,140.004,45.000,31357.74092,1.90692,385.832,31.071,45.055,45.000,0.00,0.12,-272.57,-272.63,-18,571,-1,20.0,31.5,2.5,19.7,32.9,3.0,5.73,2.61,1.8,25.1
2013-08-24 00:33:00,0.0,1.88949,0.00024,381.514,0.026,0.9356,0.0019,140.003,45.000,31358.69360,1.90738,385.927,31.071,45.055,45.000,0.00,0.12,-272.57,-272.64,-18,571,-1,20.0,31.6,2.6,19.8,33.1,3.1,5.73,2.61,1.8,25.1
2013-08-24 00:34:00,0.0,1.88963,0.00020,381.601,0.030,0.9223,0.0050,140.000,45.000,31360.19875,1.90734,385.963,31.072,45.055,45.000,0.00,0.12,-272.57,-272.63,-18,571,-1,20.0,31.2,2.4,19.8,32.7,2.9,5.73,2.61,1.8,25.1
2013-08-24 00:35:00,0.0,1.89031,0.00051,381.689,0.042,0.9161,0.0047,140.008,45.000,31360.95957,1.90781,386.021,31.102,45.055,45.000,0.00,0.12,-272.57,-272.63,-18,572,-1,20.0,31.0,2.3,19.8,32.4,2.8,5.73,2.60,1.8,25.1
2013-08-24 00:36:00,0.0,1.89048,0.00023,381.666,0.040,0.9115,0.0015,140.003,45.000,31361.99003,1.90794,385.973,31.125,45.055,45.000,0.00,0.12,-272.57,-272.64,-18,572,-1,20.0,30.8,2.2,19.8,32.2,2.7,5.73,2.60,1.8,25.1
2013-08-24 00:37:00,0.0,1.89001,0.00047,381.606,0.050,0.9142,0.0013,140.006,45.000,31363.31636,1.90755,385.921,31.130,45.055,45.000,0.00,0.12,-272.57,-272.63,-18,572,-1,20.0,30.9,2.3,19.8,32.3,2.7,5.73,2.60,1.8,25.1
2013-08-24 00:38:00,0.0,1.89041,0.00046,381.631,0.068,0.9062,0.0033,140.000,45.000,31364.38964,1.90767,385.914,31.133,45.054,45.000,0.00,0.12,-272.56,-272.63,-18,572,-1,20.0,30.6,2.1,19.8,31.9,2.6,5.73,2.60,1.7,25.1
2013-08-24 00:39:00,0.0,1.89097,0.00020,381.704,0.041,0.9056,0.0018,140.001,45.000,31364.71514,1.90829,385.983,31.130,45.054,45.000,0.00,0.12,-272.57,-272.64,-18,572,-1,20.0,30.6,2.1,19.8,31.9,2.6,5.73,2.59,1.8,25.1
2013-08-24 00:40:00,0.0,1.89053,0.00039,381.708,0.061,0.9080,0.0012,140.004,45.000,31368.54793,1.90795,386.002,31.151,45.054,45.000,0.00,0.12,-272.57,-272.63,-18,572,-1,20.0,30.6,2.1,19.8,32.0,2.6,5.73,2.60,1.7,25.1
2013-08-24 00:41:00,0.0,1.89056,0.00029,381.666,0.032,0.9057,0.0010,140.001,45.000,31365.52515,1.90794,385.946,31.159,45.054,45.000,0.00,0.12,-272.57,-272.63,-18,572,-1,20.0,30.5,2.1,19.8,31.9,2.5,5.73,2.59,1.8,25.1
2013-08-24 00:42:00,0.0,1.88946,0.00073,381.578,0.092,0.9115,0.0044,139.999,45.000,31365.42701,1.90711,385.879,31.182,45.055,45.000,0.00,0.12,-272.57,-272.64,-18,572,-1,20.0,30.7,2.2,19.8,32.0,2.6,5.73,2.60,1.8,25.1
2013-08-24 00:43:00,0.0,1.88936,0.00074,381.636,0.062,0.9136,0.0057,140.008,45.000,31369.53039,1.90663,385.953,31.145,45.055,45.000,0.00,0.12,-272.57,-272.64,-18,572,-1,20.0,30.8,2.2,19.8,32.2,2.7,5.73,2.59,1.8,25.1
2013-08-24 00:44:00,0.0,1.89071,0.00062,381.747,0.072,0.9003,0.0058,140.000,45.000,31368.52719,1.90802,386.013,31.125,45.055,45.000,0.00,0.12,-272.57,-272.63,-18,572,-1,20.0,30.4,2.0,19.8,31.7,2.5,5.73,2.59,1.7,25.1
2013-08-24 00:45:00,0.0,1.88924,0.00080,381.581,0.055,0.9054,0.0052,140.002,45.000,31368.70136,1.90680,385.859,31.125,45.055,45.000,0.00,0.12,-272.57,-272.63,-18,572,-1,20.0,30.5,2.1,19.8,31.9,2.5,5.73,2.59,1.8,25.1
2013-08-24 00:46:00,0.0,1.88848,0.00074,381.665,0.066,0.8961,0.0041,139.999,45.000,31365.83398,1.90547,385.904,31.125,45.055,45.000,0.00,0.12,-272.57,-272.64,-18,572,-1,20.0,30.3,2.0,19.8,31.6,2.4,5.73,2.59,1.8,25.1
2013-08-24 00:47:00,0.0,1.89030,0.00055,381.554,0.056,0.9046,0.0049,140.002,45.000,31368.63746,1.90739,385.813,31.125,45.055,45.000,0.00,0.12,-272.57,-272.64,-18,572,-1,20.0,30.5,2.1,19.8,31.8,2.5,5.73,2.59,1.8,25.1
2013-08-24 00:48:00,0.0,1.89104,0.00036,381.722,0.086,0.9047,0.0049,140.000,45.000,31368.09826,1.90841,385.992,31.117,45.055,45.000,0.00,0.12,-272.56,-272.63,-18,572,-1,20.0,30.4,2.1,19.8,31.8,2.5,5.73,2.59,1.8,25.1
2013-08-24 00:49:00,0.0,1.89049,0.00038,381.827,0.039,0.8846,0.0051,139.999,45.000,31367.59774,1.90747,386.016,31.125,45.055,45.000,0.00,0.12,-272.57,-272.63,-18,572,-1,20.0,29.8,1.8,19.8,31.1,2.2,5.73,2.60,1.8,25.1
2013-08-24 00:50:00,0.0,1.89037,0.00038,381.715,0.092,0.8890,0.0061,140.000,45.000,31365.41025,1.90734,385.913,31.125,45.055,45.000,0.00,0.12,-272.57,-272.64,-18,572,-1,20.0,29.9,1.8,19.8,31.2,2.2,5.73,2.60,1.8,25.1
2013-08-24 00:51:00,0.0,1.89069,0.00042,381.728,0.029,0.8990,0.0027,139.999,45.000,31364.78351,1.90797,385.972,31.125,45.055,45.000,0.00,0.12,-272.57,-272.63,-18,572,-1,20.0,30.3,2.0,19.8,31.6,2.4,5.73,2.60,1.8,25.1
2013-08-24 00:52:00,0.0,1.89032,0.00053,381.690,0.055,0.9009,0.0034,140.002,45.000,31365.62981,1.90763,385.950,31.125,45.055,45.000,0.00,0.12,-272.57,-272.63,-18,572,-1,20.0,30.3,2.0,19.8,31.6,2.4,5.73,2.60,1.8,25.1
2013-08-24 00:53:00,0.0,1.88991,0.00024,381.701,0.065,0.8975,0.0026,139.996,45.000,31364.89464,1.90706,385.933,31.125,45.055,45.000,0.00,0.12,-272.57,-272.64,-18,572,-1,20.0,30.2,2.0,19.8,31.5,2.4,5.73,2.60,1.8,25.1
2013-08-24 00:54:00,0.0,1.89178,0.00049,381.777,0.019,0.8979,0.0013,139.997,45.000,31363.85038,1.90874,386.020,31.125,45.055,45.000,0.00,0.12,-272.57,-272.63,-18,572,-1,20.0,30.2,2.0,19.8,31.6,2.4,5.73,2.60,1.8,25.1
2013-08-24 00:55:00,0.0,1.89222,0.00033,381.621,0.077,0.9066,0.0039,140.000,45.000,31365.60017,1.90955,385.915,31.125,45.055,45.000,0.00,0.12,-272.56,-272.63,-18,572,-1,20.0,30.5,2.1,19.8,31.8,2.5,5.73,2.61,1.8,25.1
2013-08-24 00:56:00,0.0,1.89218,0.00055,381.676,0.082,0.9065,0.0044,140.002,45.000,31366.61086,1.90959,385.952,31.125,45.055,45.000,0.00,0.12,-272.57,-272.64,-18,572,-1,20.0,30.5,2.1,19.8,31.9,2.5,5.73,2.60,1.8,25.2
2013-08-24 00:57:00,0.0,1.89109,0.00034,381.665,0.060,0.9007,0.0021,140.001,45.000,31366.52609,1.90849,385.925,31.125,45.055,45.000,0.00,0.12,-272.57,-272.63,-18,572,-1,20.0,30.3,2.0,19.8,31.6,2.4,5.73,2.60,1.8,25.1
2013-08-24 00:58:00,0.0,1.89143,0.00051,381.661,0.060,0.9020,0.0026,140.000,45.000,31364.65258,1.90856,385.913,31.125,45.055,45.000,0.00,0.12,-272.57,-272.63,-18,571,-1,20.0,30.3,2.0,19.7,31.7,2.4,5.73,2.60,1.8,25.2
2013-08-24 00:59:00,0.0,1.89208,0.00024,381.687,0.059,0.9050,0.0032,140.001,45.000,31365.99685,1.90943,385.960,31.115,45.055,45.000,0.00,0.12,-272.57,-272.63,-18,571,-1,20.0,30.4,2.0,19.7,31.7,2.4,5.73,2.61,1.8,25.2
2013-08-24 01:00:00,0.0,1.89217,0.00022,381.760,0.036,0.9048,0.0023,140.000,45.000,31363.14127,1.90947,386.040,31.111,45.055,45.000,0.00,0.12,-272.57,-272.64,-18,571,-1,19.9,30.5,2.0,19.7,31.8,2.5,5.73,2.61,1.8,25.2
2013-08-24 01:01:00,0.0,1.89233,0.00019,381.803,0.070,0.9032,0.0045,140.008,45.000,31363.31136,1.90966,386.075,31.109,45.055,45.000,0.00,0.12,-272.57,-272.63,-18,571,-1,19.9,30.4,2.0,19.7,31.8,2.4,5.73,2.61,1.8,25.2
2013-08-24 01:02:00,0.0,1.89177,0.00048,381.727,0.089,0.9028,0.0040,140.006,45.000,31361.73842,1.90916,385.991,31.111,45.055,45.000,0.00,0.12,-272.56,-272.64,-18,571,-1,19.9,30.4,2.0,19.7,31.8,2.4,5.73,2.61,1.8,25.2
2013-08-24 01:03:00,0.0,1.89088,0.00015,381.627,0.081,0.9116,0.0022,139.999,45.000,31360.19856,1.90838,385.935,31.086,45.055,45.000,0.00,0.12,-272.57,-272.63,-18,571,-1,19.9,30.7,2.1,19.7,32.1,2.6,5.73,2.60,1.8,25.1
2013-08-24 01:04:00,0.0,1.89032,0.00026,381.665,0.058,0.9050,0.0027,140.004,45.000,31362.10425,1.90770,385.943,31.090,45.055,45.000,0.00,0.12,-272.57,-272.64,-18,571,-1,19.9,30.5,2.0,19.7,31.9,2.5,5.73,2.61,1.8,25.2
2013-08-24 01:05:00,0.0,1.89156,0.00088,381.774,0.118,0.9016,0.0027,140.007,45.000,31361.59542,1.90861,386.025,31.116,45.055,45.000,0.00,0.12,-272.57,-272.63,-18,571,-1,19.9,30.3,2.0,19.7,31.7,2.4,5.73,2.61,1.8,25.1
2013-08-24 01:06:00,0.0,1.89373,0.00053,381.793,0.061,0.9016,0.0040,139.999,45.000,31360.61988,1.91091,386.052,31.118,45.055,45.000,0.00,0.12,-272.57,-272.64,-18,571,-1,20.0,30.3,2.0,19.7,31.7,2.4,5.73,2.61,1.8,25.1
2013-08-24 01:07:00,0.0,1.89372,0.00040,381.723,0.040,0.9071,0.0020,140.003,45.000,31361.80443,1.91114,386.012,31.117,45.054,45.000,0.00,0.12,-272.57,-272.64,-18,571,-1,20.0,30.5,2.1,19.7,31.9,2.5,5.73,2.60,1.8,25.1
2013-08-24 01:08:00,0.0,1.89318,0.00048,381.665,0.089,0.9080,0.0033,140.000,45.000,31361.09214,1.91065,385.961,31.122,45.055,45.000,0.00,0.12,-272.57,-272.64,-18,571,-1,20.0,30.6,2.1,19.7,32.0,2.5,5.73,2.60,1.8,25.1
2013-08-24 01:09:00,0.0,1.89379,0.00059,381.768,0.070,0.9108,0.0018,140.003,45.000,31360.85529,1.91108,386.061,31.110,45.054,45.000,0.00,0.12,-272.57,-272.63,-18,571,-1,20.0,30.7,2.2,19.7,32.1,2.6,5.73,2.60,1.8,25.1
2013-08-24 01:10:00,0.0,1.89419,0.00062,381.687,0.059,0.9151,0.0066,139.995,45.000,31359.64702,1.91183,386.013,31.122,45.055,45.000,0.00,0.12,-272.57,-272.64,-18,571,-1,19.9,30.9,2.2,19.7,32.3,2.7,5.73,2.60,1.8,25.1
2013-08-24 01:11:00,0.0,1.89335,0.00032,381.627,0.048,0.9236,0.0019,139.997,45.000,31358.08488,1.91112,386.002,31.115,45.055,45.000,0.00,0.12,-272.57,-272.63,-18,571,-1,19.9,31.1,2.3,19.7,32.6,2.8,5.73,2.60,1.8,25.1
2013-08-24 01:12:00,0.0,1.89252,0.00037,381.722,0.036,0.9145,0.0082,139.997,45.000,31358.41466,1.91016,386.048,31.124,45.055,45.000,0.00,0.12,-272.57,-272.63,-18,571,-1,19.9,30.8,2.2,19.7,32.3,2.7,5.73,2.60,1.8,25.2
2013-08-24 01:13:00,0.0,1.89250,0.00046,381.752,0.075,0.9102,0.0030,140.005,45.000,31361.71394,1.90993,386.044,31.123,45.055,45.000,0.00,0.12,-272.57,-272.64,-18,571,-1,19.9,30.7,2.1,19.7,32.1,2.6,5.73,2.59,1.8,25.2
2013-08-24 01:14:00,0.0,1.89350,0.00117,381.870,0.049,0.8963,0.0022,140.006,45.000,31362.17499,1.91046,386.106,31.119,45.055,45.000,0.00,0.12,-272.57,-272.63,-18,571,-1,19.9,30.1,1.9,19.7,31.6,2.4,5.73,2.59,1.8,25.2
2013-08-24 01:15:00,0.0,1.89400,0.00035,381.798,0.142,0.8972,0.0055,140.002,45.000,31362.47698,1.91132,386.053,31.098,45.055,45.000,0.00,0.12,-272.56,-272.63,-18,571,-1,19.9,30.2,1.9,19.7,31.6,2.3,5.73,2.60,1.8,25.1
2013-08-24 01:16:00,0.0,1.89272,0.00044,381.760,0.089,0.9040,0.0064,140.003,45.000,31361.19206,1.91017,386.020,31.087,45.055,45.000,0.00,0.12,-272.57,-272.63,-18,571,-1,19.9,30.4,2.0,19.6,31.9,2.4,5.73,2.60,1.8,25.1
2013-08-24 01:17:00,0.0,1.89281,0.00054,381.648,0.128,0.9043,0.0066,140.002,45.000,31361.19391,1.91016,385.931,31.078,45.055,45.001,0.00,0.12,-272.57,-272.64,-18,571,-1,19.9,30.5,2.0,19.6,31.9,2.4,5.73,2.60,1.8,25.1
2013-08-24 01:18:00,0.0,1.89240,0.00046,381.588,0.044,0.9228,0.0019,140.011,45.000,31362.96350,1.91008,385.944,31.063,45.056,45.001,0.00,0.12,-272.56,-272.63,-18,571,-1,19.9,31.1,2.3,19.6,32.6,2.7,5.73,2.59,1.8,25.1
2013-08-24 01:19:00,0.0,1.89288,0.00067,381.611,0.087,0.9172,0.0028,140.002,45.000,31360.38373,1.91039,385.944,31.063,45.055,45.001,0.00,0.12,-272.57,-272.63,-18,571,-1,19.9,30.9,2.2,19.6,32.4,2.7,5.73,2.59,1.8,25.1
2013-08-24 01:20:00,0.0,1.89263,0.00018,381.511,0.046,0.9166,0.0026,139.993,45.000,31358.04667,1.91027,385.846,31.063,45.055,45.001,0.00,0.12,-272.57,-272.63,-18,571,-1,19.9,30.9,2.2,19.6,32.4,2.6,5.73,2.59,1.8,25.1
2013-08-24 01:21:00,0.0,1.89136,0.00054,381.478,0.072,0.9198,0.0033,139.996,45.000,31358.22304,1.90915,385.830,31.063,45.055,45.000,0.00,0.12,-272.57,-272.63,-18,571,-1,19.9,31.0,2.2,19.6,32.5,2.7,5.73,2.59,1.8,25.1
2013-08-24 01:22:00,0.0,1.89140,0.00091,381.695,0.093,0.8990,0.0129,140.000,45.000,31357.02061,1.90844,385.936,31.068,45.055,45.000,0.00,0.12,-272.57,-272.63,-18,571,-1,19.9,30.3,1.9,19.6,31.8,2.4,5.73,2.59,1.8,25.1
2013-08-24 01:23:00,0.0,1.89400,0.00034,381.748,0.072,0.8928,0.0051,140.002,45.000,31357.82219,1.91101,385.966,31.076,45.055,45.000,0.00,0.12,-272.57,-272.64,-18,571,-1,19.9,30.0,1.8,19.6,31.5,2.2,5.73,2.60,1.8,25.2
2013-08-24 01:24:00,0.0,1.89465,0.00035,381.667,0.061,0.9076,0.0026,140.003,45.000,31358.41073,1.91194,385.952,31.082,45.055,45.000,0.00,0.12,-272.57,-272.63,-18,571,-1,19.9,30.6,2.1,19.6,32.0,2.5,5.73,2.59,1.8,25.1
2013-08-24 01:25:00,0.0,1.89438,0.00056,381.540,0.059,0.9152,0.0033,140.001,45.000,31357.58526,1.91196,385.867,31.122,45.055,45.000,0.00,0.12,-272.57,-272.63,-18,571,-1,19.9,30.9,2.2,19.6,32.4,2.6,5.73,2.59,1.8,25.1
2013-08-24 01:26:00,0.0,1.89467,0.00040,381.479,0.098,0.9273,0.0025,139.996,45.000,31357.98283,1.91247,385.856,31.123,45.054,44.999,0.00,0.12,-272.57,-272.64,-18,571,-1,19.9,31.3,2.4,19.6,32.8,2.8,5.73,2.60,1.8,25.1
2013-08-24 01:27:00,0.0,1.89485,0.00028,381.276,0.062,0.9365,0.0051,140.001,45.000,31359.68096,1.91279,385.712,31.124,45.054,45.000,0.00,0.12,-272.57,-272.64,-18,571,-1,19.9,31.6,2.5,19.6,33.1,2.9,5.73,2.59,1.8,25.1
2013-08-24 01:28:00,0.0,1.89387,0.00089,381.407,0.110,0.9317,0.0085,140.003,45.000,31360.37577,1.91207,385.801,31.125,45.054,45.000,0.00,0.12,-272.57,-272.63,-18,571,-1,19.9,31.5,2.5,19.6,33.0,2.9,5.73,2.59,1.8,25.1
2013-08-24 01:29:00,0.0,1.89181,0.00038,381.486,0.056,0.9161,0.0041,140.007,45.000,31362.51133,1.90951,385.826,31.125,45.055,45.000,0.00,0.12,-272.56,-272.64,-18,571,-1,19.9,30.9,2.2,19.6,32.4,2.7,5.73,2.60,1.8,25.1
2013-08-24 01:30:00,0.0,1.89235,0.00106,381.540,0.076,0.9106,0.0022,139.999,45.000,31360.18841,1.90947,385.829,31.125,45.055,45.000,0.00,0.12,-272.57,-272.64,-18,571,-1,19.9,30.7,2.1,19.6,32.2,2.6,5.73,2.60,1.8,25.1
2013-08-24 01:31:00,0.0,1.89428,0.00048,381.524,0.036,0.9111,0.0016,140.002,45.000,31361.05489,1.91172,385.835,31.125,45.055,45.000,0.00,0.12,-272.57,-272.64,-18,571,-1,19.9,30.7,2.1,19.6,32.2,2.6,5.73,2.60,1.8,25.1
2013-08-24 01:32:00,0.0,1.89452,0.00040,381.404,0.119,0.9180,0.0083,140.001,45.000,31360.39732,1.91214,385.735,31.125,45.055,45.000,0.00,0.12,-272.56,-272.63,-18,571,-1,19.9,30.9,2.2,19.6,32.4,2.6,5.73,2.60,1.8,25.1
2013-08-24 01:33:00,0.0,1.89497,0.00032,381.467,0.048,0.9180,0.0058,140.001,45.000,31359.99694,1.91251,385.807,31.130,45.055,45.000,0.00,0.12,-272.57,-272.64,-18,571,-1,19.9,31.1,2.3,19.6,32.6,2.7,5.73,2.60,1.8,25.1
2013-08-24 01:34:00,0.0,1.89516,0.00057,381.394,0.035,0.9247,0.0056,139.992,45.000,31354.11980,1.91304,385.768,31.122,45.055,45.000,0.00,0.12,-272.57,-272.64,-18,571,-1,19.9,31.2,2.4,19.6,32.7,2.8,5.73,2.60,1.8,25.1
2013-08-24 01:35:00,0.0,1.89260,0.00159,381.209,0.072,0.9350,0.0045,140.004,45.000,31356.27392,1.91082,385.633,31.120,45.055,45.000,0.00,0.12,-272.57,-272.64,-18,571,-1,19.9,31.6,2.5,19.6,33.1,2.9,5.73,2.60,1.8,25.1
2013-08-24 01:36:00,0.0,1.89087,0.00094,381.175,0.110,0.9273,0.0023,140.004,45.000,31355.85097,1.90884,385.559,31.107,45.055,45.000,0.00,0.12,-272.57,-272.63,-18,571,-1,19.9,31.4,2.4,19.6,32.9,2.8,5.73,2.60,1.8,25.1
2013-08-24 01:37:00,0.0,1.89069,0.00079,381.368,0.126,0.9231,0.0063,140.005,45.000,31355.15424,1.90821,385.714,31.111,45.055,45.000,0.00,0.12,-272.57,-272.64,-18,570,-1,19.9,31.2,2.3,19.6,32.8,2.8,5.73,2.61,1.8,25.1
2013-08-24 01:38:00,0.0,1.89160,0.00041,381.517,0.050,0.9139,0.0033,139.999,45.000,31352.19528,1.90924,385.834,31.108,45.055,45.000,0.00,0.12,-272.57,-272.64,-18,570,-1,19.9,30.8,2.1,19.6,32.3,2.6,5.73,2.60,1.8,25.1
2013-08-24 01:39:00,0.0,1.89078,0.00026,381.511,0.031,0.9074,0.0033,140.001,45.000,31353.30226,1.90818,385.797,31.125,45.055,45.000,0.00,0.12,-272.57,-272.63,-18,570,-1,19.9,30.6,2.1,19.6,32.1,2.5,5.73,2.61,1.8,25.1
2013-08-24 01:40:00,0.0,1.89024,0.00060,381.519,0.045,0.9002,0.0036,139.994,45.000,31351.99301,1.90765,385.773,31.125,45.055,45.000,0.00,0.12,-272.57,-272.63,-18,570,-1,19.9,30.3,2.0,19.6,31.8,2.4,5.73,2.61,1.8,25.1
2013-08-24 01:41:00,0.0,1.89025,0.00062,381.445,0.095,0.9060,0.0032,140.005,45.000,31357.84777,1.90737,385.734,31.127,45.055,45.000,0.00,0.12,-272.57,-272.63,-18,571,-1,19.9,30.6,2.1,19.6,32.1,2.5,5.73,2.60,1.8,25.1
2013-08-24 01:42:00,0.0,1.89192,0.00011,381.358,0.067,0.9214,0.0028,140.004,45.000,31355.27572,1.90950,385.700,31.125,45.055,45.000,0.00,0.12,-272.56,-272.64,-18,571,-1,19.9,31.1,2.3,19.6,32.6,2.7,5.73,2.61,1.8,25.1
2013-08-24 01:43:00,0.0,1.89109,0.00040,381.486,0.075,0.9085,0.0092,139.998,45.000,31352.11983,1.90865,385.777,31.132,45.055,45.000,0.00,0.12,-272.57,-272.63,-18,571,-1,19.9,30.7,2.1,19.6,32.2,2.6,5.73,2.61,1.8,25.1
2013-08-24 01:44:00,0.0,1.89067,0.00020,381.394,0.083,0.9014,0.0029,139.997,45.000,31354.53539,1.90790,385.661,31.143,45.055,45.000,0.00,0.12,-272.57,-272.63,-18,571,-1,19.9,30.4,2.0,19.6,31.9,2.4,5.73,2.61,1.8,25.1
2013-08-24 01:45:00,0.0,1.89066,0.00021,381.393,0.069,0.9117,0.0020,140.004,45.000,31355.81014,1.90812,385.691,31.131,45.055,45.000,0.00,0.12,-272.57,-272.64,-18,571,-1,19.9,30.7,2.2,19.6,32.3,2.6,5.73,2.60,1.8,25.1
2013-08-24 01:46:00,0.0,1.89059,0.00040,381.497,0.044,0.9087,0.0040,140.002,45.000,31355.37825,1.90805,385.782,31.148,45.055,45.000,0.00,0.12,-272.57,-272.63,-18,571,-1,19.9,30.7,2.1,19.6,32.2,2.6,5.73,2.60,1.8,25.1
2013-08-24 01:47:00,0.0,1.89047,0.00032,381.457,0.071,0.9022,0.0053,140.002,45.000,31356.05712,1.90773,385.726,31.130,45.055,45.000,0.00,0.12,-272.57,-272.64,-18,570,-1,19.9,30.4,2.0,19.6,31.9,2.4,5.73,2.60,1.9,25.2